Simultaneous Nadir Overpasses (SNOs) Predictions

Prediction of SNOs between GOES-15 and METOP-B Satellite Orbit:

Table of predicted SNOs for the next 14.0 days since TLE Epoch: 2/11/2023
Index Date Time (GOES-15) GOES-15 Lat,Lon METOP-B Lat,Lon Distance(km) Time Diff (sec)
1 02/11/2023 18:11:39 -0.01,-128.24 0.52,-130.59 268.55 80
2 02/12/2023 17:53:41 -0.01,-128.23 -0.61,-125.60 299.59 80
3 02/14/2023 06:10:02 0.02,-128.26 -0.41,-130.21 222.02 80
4 02/15/2023 05:52:03 0.02,-128.24 0.67,-125.21 345.63 80
5 02/16/2023 18:08:15 -0.03,-128.18 0.34,-129.77 181.43 80
6 02/17/2023 17:50:16 -0.02,-128.16 -0.75,-124.77 385.81 80
7 02/19/2023 06:06:37 0.03,-128.18 -0.25,-129.38 136.86 80
8 02/20/2023 05:48:37 0.02,-128.16 0.85,-124.38 430.52 80
9 02/21/2023 18:04:50 -0.03,-128.10 0.14,-128.95 96.56 80
10 02/22/2023 17:46:50 -0.02,-128.08 -0.96,-123.95 470.76 80
11 02/24/2023 06:03:10 0.03,-128.09 -0.07,-128.55 51.98 80
